This is the latest recevied weather packets stored in our database for station/object NR6G-12. If no packets are shown the sender has not sent any weather packets the latest 10 day(s).
| Time | Temp. | Humidity | Pressure | Rain* | Wind** | Luminosity | Snow |
|---|---|---|---|---|---|---|---|
| 1777782841 | 15.56° C | 51% | 1013.3 hPa | 0 mm | - | - | - |
| 1777782481 | 15.56° C | 51% | 1013.3 hPa | 0 mm | - | - | - |
| 1777782121 | 15.56° C | 52% | 1013.4 hPa | 0 mm | - | - | - |
| 1777781761 | 15.56° C | 51% | 1013.3 hPa | 0 mm | - | - | - |
| 1777781401 | 15.56° C | 49% | 1013.3 hPa | 0 mm | - | - | - |
| 1777781041 | 15.56° C | 45% | 1013.2 hPa | 0 mm | - | - | - |
| 1777780681 | 15.56° C | 45% | 1013.2 hPa | 0 mm | - | - | - |
| 1777780321 | 15.56° C | 49% | 1013.1 hPa | 0 mm | - | - | - |
| 1777779961 | 15.56° C | 49% | 1013.1 hPa | 0 mm | - | - | - |
| 1777779601 | 15.56° C | 51% | 1013 hPa | 0 mm | - | - | - |
| 1777779241 | 15.56° C | 50% | 1013 hPa | 0 mm | - | - | - |
| 1777778881 | 15.56° C | 50% | 1013 hPa | 0 mm | - | - | - |
| 1777778521 | 15.56° C | 50% | 1012.9 hPa | 0 mm | - | - | - |
| 1777778161 | 16.11° C | 49% | 1012.8 hPa | 0 mm | - | - | - |
| 1777777801 | 16.11° C | 48% | 1012.8 hPa | 0 mm | - | - | - |
| 1777777441 | 16.11° C | 48% | 1012.7 hPa | 0 mm | - | - | - |
| 1777777081 | 16.67° C | 46% | 1012.8 hPa | 0 mm | - | - | - |
| 1777776721 | 16.67° C | 45% | 1012.7 hPa | 0 mm | - | - | - |
| 1777776361 | 16.67° C | 45% | 1012.7 hPa | 0 mm | - | - | - |
| 1777776001 | 16.67° C | 44% | 1012.7 hPa | 0 mm | - | - | - |
| 1777775641 | 16.67° C | 43% | 1012.6 hPa | 0 mm | - | - | - |
| 1777775281 | 16.67° C | 44% | 1012.6 hPa | 0 mm | - | - | - |
| 1777774921 | 16.67° C | 44% | 1012.7 hPa | 0 mm | - | - | - |
| 1777774561 | 16.67° C | 45% | 1012.7 hPa | 0 mm | - | - | - |
| 1777774201 | 17.22° C | 47% | 1012.5 hPa | 0 mm | - | - | - |
* Rain latest hour (hover to see other rain measurements)
** Current wind speed in m/s (hover to see current wind gust speed)